Lær å fly hos oss!

Oslo Flyveklubb har i mange år utdannet flygere til privatflygersetifikat PPL(A). Skolen har godkjenning for å drive utdanning til teoriundervisning til PPL(A), privatflygersertifikat PPL (A) og mørkeflyging.

Gi bort en flytur i gave

På en introduksjonstur vil kandidaten være med på forberedelser til, og gjennomføring av en flytur på en times varighet med en av våre instruktører.

Hvor vi holder til?

Flyplassen ligger i Lillestrøm 10 minutter med tog fra Oslo. Følg storgata fra Lillestrøms sentrum så vill man se plassen på venstre side.
Metar/TAF Gardermoen:

ENGM 020220Z 15007KT 0800 R19R/0900N R01R/0900N R19L/0900N R01L/0900U FZFG VV002 M03/M03 Q1023

TAF ENGM 012300Z 0200/0224 01003KT 0500 FZFG VV002 TEMPO 0200/0206 1500 BR BKN003 BECMG 0204/0206 18010KT 4000 BR OVC003 TEMPO 0206/0211 6000 SCT003 OVC006 TEMPO 0211/0224 2000 SN VV008 PROB30 0211/0215 -FZDZ